LU3GHF-13 Weather Reports


time (UTC)temp
F
wind
direction
speed
knots
gust
knots
rain 1hr
in
rain 24hr
in
rain mn
in
humidity
%
barometer
mb
20260507153209 80 0.0 0.0 0.00 0.00 0.00 92 996.4
20260507150129 82 0.0 0.0 0.00 0.00 0.00 81 996.8
20260507145104 81 0.0 0.0 0.00 0.00 0.00 80 996.9
20260507133826 80 0.0 0.0 0.00 0.00 0.00 81 997.2
20260507122556 80 0.0 0.0 0.00 0.00 0.00 80 997.5
20260507112238 78 0.0 0.0 0.00 0.00 0.00 83 997.7
20260507111212 78 0.0 0.0 0.00 0.00 0.00 83 997.6
20260507110154 78 0.0 0.0 0.00 0.00 0.00 83 997.5
20260507105149 78 0.0 0.0 0.00 0.00 0.00 83 997.5
20260507104112 78 0.0 0.0 0.00 0.00 0.00 83 997.6
20260507103038 78 0.0 0.0 0.00 0.00 0.00 83 997.5
20260507101955 78 0.0 0.0 0.00 0.00 0.00 82 997.3
20260507100907 78 0.0 0.0 0.00 0.00 0.00 83 997.2
20260507095811 78 0.0 0.0 0.00 0.00 0.00 82 997.0
20260507094732 78 0.0 0.0 0.00 0.00 0.00 82 996.9
20260507093704 78 0.0 0.0 0.00 0.00 0.00 82 996.6
20260507092619 78 0.0 0.0 0.00 0.00 0.00 83 996.2
20260507091545 78 0.0 0.0 0.00 0.00 0.00 83 996.2
20260507090513 78 0.0 0.0 0.00 0.00 0.00 83 995.9
20260507085431 79 0.0 0.0 0.00 0.00 0.00 83 995.9
20260507084353 79 0.0 0.0 0.00 0.00 0.00 83 996.1
20260507083319 79 0.0 0.0 0.00 0.00 0.00 84 996.1
20260507082314 79 0.0 0.0 0.00 0.00 0.00 84 996.4
20260507081300 79 0.0 0.0 0.00 0.00 0.00 84 996.5
20260507080224 79 0.0 0.0 0.00 0.00 0.00 84 996.6
20260507075219 79 0.0 0.0 0.00 0.00 0.00 84 996.7
20260507074204 79 0.0 0.0 0.00 0.00 0.00 84 996.9
20260507073155 79 0.0 0.0 0.00 0.00 0.00 84 997.0
20260507072129 79 0.0 0.0 0.00 0.00 0.00 84 997.1
20260507071113 79 0.0 0.0 0.00 0.00 0.00 84 997.2
20260507070033 79 0.0 0.0 0.00 0.00 0.00 84 997.3
20260507065009 79 0.0 0.0 0.00 0.00 0.00 85 997.4
20260507063919 79 0.0 0.0 0.00 0.00 0.00 85 997.4
20260507062823 79 0.0 0.0 0.00 0.00 0.00 85 997.4
20260507061802 79 0.0 0.0 0.00 0.00 0.00 86 997.5
20260507060801 79 0.0 0.0 0.00 0.00 0.00 86 997.5
20260507053652 79 0.0 0.0 0.00 0.00 0.00 85 998.1
20260507052602 79 0.0 0.0 0.00 0.00 0.00 85 998.2
20260507051523 79 0.0 0.0 0.00 0.00 0.00 84 998.3
20260507050438 79 0.0 0.0 0.00 0.00 0.00 84 998.4
20260507045434 79 0.0 0.0 0.00 0.00 0.00 83 998.5
20260507044423 79 0.0 0.0 0.00 0.00 0.00 83 998.6
20260507043350 80 0.0 0.0 0.00 0.00 0.00 83 998.7
20260507042322 80 0.0 0.0 0.00 0.00 0.00 83 998.7
20260507041251 80 0.0 0.0 0.00 0.00 0.00 82 998.8
20260507040241 80 0.0 0.0 0.00 0.00 0.00 82 998.9
20260507035149 80 0.0 0.0 0.00 0.00 0.00 82 998.9
20260507034112 80 0.0 0.0 0.00 0.00 0.00 82 999.0
20260507033013 80 0.0 0.0 0.00 0.00 0.00 82 999.1
20260507032009 80 0.0 0.0 0.00 0.00 0.00 81 999.2
20260507030939 80 0.0 0.0 0.00 0.00 0.00 81 999.2
20260507025916 80 0.0 0.0 0.00 0.00 0.00 81 999.2
20260507024906 81 0.0 0.0 0.00 0.00 0.00 80
20260507022758 80 0.0 0.0 0.00 0.00 0.00 81 999.4
20260507020703 80 0.0 0.0 0.00 0.00 0.00 80 999.6
20260507015631 80 0.0 0.0 0.00 0.00 0.00 81 999.7
20260507014608 80 0.0 0.0 0.00 0.00 0.00 81 999.7
20260507013526 80 0.0 0.0 0.00 0.00 0.00 81 999.8
20260507012500 80 0.0 0.0 0.00 0.00 0.00 81 999.8
20260507011457 81 0.0 0.0 0.00 0.00 0.00 80 999.8
20260507010437 81 0.0 0.0 0.00 0.00 0.00 80 1000.1
20260507005411 81 0.0 0.0 0.00 0.00 0.00 80 1000.0
20260507004411 81 0.0 0.0 0.00 0.00 0.00 80 1000.0
20260507003336 81 0.0 0.0 0.00 0.00 0.00 80 1000.0
20260507002316 81 0.0 0.0 0.00 0.00 0.00 80 999.9
20260507001226 81 0.0 0.0 0.00 0.00 0.00 80 999.9
20260507000155 81 0.0 0.0 0.00 0.00 0.00 80 999.9
20260506235110 81 0.0 0.0 0.00 0.00 0.00 80 999.9
20260506234045 81 0.0 0.0 0.00 0.00 0.00 80 999.8
20260506232947 81 0.0 0.0 0.00 0.00 0.00 81 1000.0
20260506231900 81 0.0 0.0 0.00 0.00 0.00 82 1000.1
20260506230854 81 0.0 0.0 0.00 0.00 0.00 82 1000.2
20260506225815 81 0.0 0.0 0.00 0.00 0.00 83 1000.4
20260506224806 81 0.0 0.0 0.00 0.00 0.00 85 1000.5
20260506223755 81 0.0 0.0 0.00 0.00 0.00 84 1000.6
20260506222709 81 0.0 0.0 0.00 0.00 0.00 84 1000.5
20260506221620 82 0.0 0.0 0.00 0.00 0.00 83 1000.4
20260506220605 82 0.0 0.0 0.00 0.00 0.00 83 1000.6
20260506215523 82 0.0 0.0 0.00 0.00 0.00 82 1000.5
20260506214433 82 0.0 0.0 0.00 0.00 0.00 82 1000.5
20260506213349 82 0.0 0.0 0.00 0.00 0.00 82 1000.4
20260506212316 83 0.0 0.0 0.00 0.00 0.00 82 1000.5
20260506211243 83 0.0 0.0 0.00 0.00 0.00 80 1000.5
20260506210215 83 0.0 0.0 0.00 0.00 0.00 80 1000.6
20260506205215 84 0.0 0.0 0.00 0.00 0.00 79 1000.7
20260506204146 84 0.0 0.0 0.00 0.00 0.00 78 1000.8
20260506203048 84 0.0 0.0 0.00 0.00 0.00 77 1000.9
20260506202007 84 0.0 0.0 0.00 0.00 0.00 76 1000.8
20260506200942 85 0.0 0.0 0.00 0.00 0.00 74 1000.7
20260506195846 86 0.0 0.0 0.00 0.00 0.00 73 1000.7
20260506194807 86 0.0 0.0 0.00 0.00 0.00 72 1000.9
20260506193711 86 0.0 0.0 0.00 0.00 0.00 71 1000.8
20260506192700 86 0.0 0.0 0.00 0.00 0.00 72 1000.7
20260506190602 88 0.0 0.0 0.00 0.00 0.00 68 1000.8
20260506185542 87 0.0 0.0 0.00 0.00 0.00 69 1000.9
20260506184516 88 0.0 0.0 0.00 0.00 0.00 68 1000.8
20260506183431 88 0.0 0.0 0.00 0.00 0.00 69 1001.1
20260506171000 89 0.0 0.0 0.00 0.00 0.00 66 1002.5
20260506161836 90 0.0 0.0 0.00 0.00 0.00 64 1003.2